Route Details

Aircraft Information
Group: North America Fleet
Types: B738, B752, B762, B763
Route Data
Distance: 314nm
Duration: 1h 30m
Origin METAR: KCLT 010452Z 21004KT 10SM FEW008 BKN015 OVC080 14/13 A3008 RMK SLP184 T01440133 401500100
Dest. METAR: KBWI 010454Z 00000KT 10SM FEW023 OVC034 02/M01 A3019 RMK AO2 SLP223 T00221006 400890022
Freight Data
(for Feb 1, 2023)
Load Factor:
40%
Manifested Cargo: 48,132lbs
Financial History
Total Freight: 99,422lbs
Average Load: 0lbs/flt
Fuel Used: 19,459lbs
Avg. Fuel Used: 0lbs/flt
Fuel Expense: $5,875
Avg. Fuel Expense: $0
Avg. Fuel Cost: $0/lbs
Total Gross Income: $214,445
Pilot Pay: $338
Total Expenses: $29,709
Total Revenue: $178,313
Average Revenue: $0

Capitol Logistics 331




KCLT
Charlotte/Douglas International Airport
Charlotte, North Carolina
KBWI
Baltimore/Washington International Airport
Baltimore, Maryland

Activity Log

Date Flight Route Aircraft Duration
10/09/2021 CPX7312 KILNS4 AUDII THHMP RAVNN6 B738 1h 10m
05/18/2021 CPX7312 KILNS4 AUDII THHMP RAVNN6 A30F 1h 00m